Location: ??????
(56.0120°N, 39.1740°E)
Time: 09:55:47
(UTC+00:00)

Meteor 1-27 - Pass Details

Date: 14 April 2026
Orbit: 835 x 892 km, 81.3° (Epoch: 19 May)

Event Time Altitude Azimuth Distance (km) Brightness Sun altitude
Exits shadow 22:04:35 55° 206° (SSW) 1,054 4.3 -23.8°
Maximum altitude 22:05:55 82° 285° (WNW) 898 4.2 -23.7°
Drops below altitude 10° 22:11:43 10° 14° (NNE) 2,537 7.8 -23.6°
Sets 22:14:09 0° 15° (NNE) 3,470 8.9 -23.5°
